This demonstration page uses our WeatherBlox Daily Observations layout. Learn more.

Left ArrowRight Arrow

44.8408, -93.29828

Hourly Observations for June 27, 2022

Temp ( °F °C ) Dew Point ( °F °C ) Humidity (%) Winds ( mph kmh ) Pressure ( in mb ) Visibility ( mi km ) Precip ( " mm )
12:53 am 00:53 Clear 63 17.2 44 6.7 50 50 WNW 7 11 30.21 1023 10 16 0.00 0.00
1:53 am 01:53 Mostly Clear 62 16.7 45 7.2 54 54 W 5 7 30.21 1023 10 16 0.00 0.00
2:53 am 02:53 Mostly Clear 60 15.6 46 7.8 60 60 WNW 5 7 30.21 1023 10 16 0.00 0.00
3:53 am 03:53 Partly Cloudy 60 15.6 47 8.3 62 62 WNW 3 6 30.22 1023 10 16 0.00 0.00
4:53 am 04:53 Partly Cloudy 61 16.1 47 8.3 60 60 SSW 3 6 30.22 1023 10 16 0.00 0.00
5:53 am 05:53 Mostly Sunny 58 14.4 48 8.9 70 70 Calm 30.23 1024 10 16 0.00 0.00
6:53 am 06:53 Mostly Sunny 61 16.1 48 8.9 63 63 SSW 3 6 30.24 1024 10 16 0.00 0.00
7:53 am 07:53 Sunny 64 17.8 49 9.4 58 58 Calm 30.25 1024 10 16 0.00 0.00
8:53 am 08:53 Sunny 67 19.4 48 8.9 51 51 ESE 5 7 30.26 1025 10 16 0.00 0.00
9:53 am 09:53 Sunny 69 20.6 48 8.9 47 47 Calm 30.26 1025 10 16 0.00 0.00
10:53 am 10:53 Sunny 73 22.8 49 9.4 43 43 Calm 30.25 1024 10 16 0.00 0.00
11:53 am 11:53 Sunny 76 24.4 49 9.4 39 39 W 7 11 30.24 1024 10 16 0.00 0.00
12:53 pm 12:53 Sunny 77 25 50 10 39 39 VRB 7 11 30.23 1024 10 16 0.00 0.00
1:53 pm 13:53 Partly Cloudy 81 27.2 48 8.9 32 32 WNW 7 11 30.21 1023 10 16 0.00 0.00
2:53 pm 14:53 Partly Cloudy 83 28.3 48 8.9 30 30 NW 8 13 30.19 1022 10 16 0.00 0.00
3:53 pm 15:53 Partly Cloudy 84 28.9 47 8.3 27 27 WNW 13 20 30.17 1022 10 16 0.00 0.00
4:53 pm 16:53 Partly Cloudy 85 29.4 45 7.2 25 25 WNW 10 17 30.15 1021 10 16 0.00 0.00
5:53 pm 17:53 Partly Cloudy 85 29.4 45 7.2 25 25 W 14 22 30.14 1021 10 16 0.00 0.00
6:53 pm 18:53 Partly Cloudy 84 28.9 45 7.2 25 25 W 9 15 30.12 1020 10 16 0.00 0.00
7:53 pm 19:53 Partly Cloudy 81 27.2 45 7.2 28 28 WNW 8 13 30.11 1020 10 16 0.00 0.00
8:53 pm 20:53 Mostly Sunny 80 26.7 46 7.8 30 30 VRB 3 6 30.11 1020 10 16 0.00 0.00
9:53 pm 21:53 Mostly Clear 79 26.1 47 8.3 32 32 SSW 7 11 30.11 1020 10 16 0.00 0.00
10:53 pm 22:53 Partly Cloudy 76 24.4 48 8.9 37 37 SW 7 11 30.11 1020 10 16 0.00 0.00
11:53 pm 23:53 Mostly Clear 74 23.3 47 8.3 38 38 SSW 7 11 30.11 1020 10 16 0.00 0.00

Powered by AerisWeather